Location: Arcones
(41.1182°N, 3.7238°W)
Time: 19:33:54
(UTC+00:00)

YAOGAN 1 - Pass Details

Date: 20 March 2026
Orbit: 604 x 606 km, 97.8° (Epoch: 21 April)

Event Time Altitude Azimuth Distance (km) Brightness Sun altitude
Rises 18:55:48 0° 176° (S) 2,848 5.9 -6.3°
Reaches altitude 10° 18:57:59 10° 180° (S) 1,949 5.1 -6.7°
Maximum altitude 19:02:10 58° 260° (W) 710 3.3 -7.4°
Drops below altitude 10° 19:06:23 10° 340° (NNW) 1,964 5.5 -8.2°
Sets 19:08:36 0° 344° (NNW) 2,872 6.3 -8.6°
